Regional Weather Roundup
Issued by NWS

Home | Current Version | Previous Version | Graphics & Text | Print | Product List | Glossary On
Versions: 1 2 3 4 5 6 7 8 9 10 11 12 13 14 15 16 17 18 19 20 21 22 23 24 25 26 27 28 29 30 31 32 33 34 35 36 37 38 39 40 41 42 43 44 45 46 47 48 49 50
000
ASUS45 KBOU 271407
RWRCO

WEATHER ROUNDUP FOR COLORADO
NATIONAL WEATHER SERVICE DENVER/BOULDER CO
800 AM MDT MON APR 27 2015

NOTE: "FAIR" INDICATES FEW OR NO CLOUDS BELOW 12000 FEET WITH NO
SIGNIFICANT WEATHER AND/OR OBSTRUCTIONS TO VISIBILITY.

COZ001>005-013-030-031-271500-
...NORTHWEST COLORADO...

CITY           SKY/WX    TMP DP  RH WIND       PRES   REMARKS
CRAIG          CLOUDY    41  39  93 SW6       30.17R
HAYDEN         CLOUDY    39  36  87 CALM      30.17R
MEEKER         CLOUDY    41  37  86 NW5       30.16R
MOUNT WERNER   NOT AVBL
STEAMBOAT SPGS CLOUDY    37  35  90 CALM      30.17R
WALDEN         MOSUNNY   30  28  93 CALM      30.19R
$$

COZ006>008-011-271500-
...WEST CENTRAL VALLEYS...

CITY           SKY/WX    TMP DP  RH WIND       PRES   REMARKS
GRAND JUNCTION PTSUNNY   47  42  83 CALM      30.10R
MONTROSE       CLOUDY    44  39  82 CALM      30.13R
EAGLE          FOG       36  36 100 CALM      30.17R VSB 1/4
RIFLE          CLOUDY    44  39  82 E3        30.14R
DELTA          NOT AVBL
NUCLA          SUNNY     41  37  87 E3        30.13R
$$

COZ017>023-064>068-271500-
...SOUTHWEST COLORADO...

CITY           SKY/WX    TMP DP  RH WIND       PRES   REMARKS
DURANGO        SUNNY     36  35  96 CALM      30.03R
CORTEZ         SUNNY     39  36  89 CALM      30.05R
PAGOSA SPRINGS SUNNY     44  29  56 NE5       30.05R
TELLURIDE      CLOUDY    32  31  96 CALM      30.12S
WOLF CREEK PAS NOT AVBL
$$

COZ009-010-012-014-032>034-037-058>063-271500-
...CENTRAL COLORADO...

CITY           SKY/WX    TMP DP  RH WIND       PRES   REMARKS
ASPEN          MOSUNNY   35  30  82 CALM      30.14R
BUENA VISTA    CLOUDY    37  33  87 CALM      30.17S
COPPER MTN     CLOUDY    28  21  74 E10       30.23R WCI  19
BERTHOUD PASS  FAIR      19  10  68 MISG      30.26R
COTTONWOOD PAS LGT SNOW  32  32 100 SE3       30.20R
GUNNISON       MOSUNNY   34  27  75 CALM      30.16R
KREMMLING      SUNNY     32  30  93 CALM      30.19R
LEADVILLE      CLOUDY    28  27  96 SE3       30.18R
MONARCH PASS   CLOUDY    23  21  93 MISG      30.27R
SALIDA         CLOUDY    37  35  94 CALM      30.25R
SUNLIGHT       CLOUDY    30  30 100 NE6       30.23R FOG     WCI  24
WILKERSON PASS FOG      N/A N/A N/A NE6       30.24R VSB 1/2
$$

COZ069>075-271500-
...SAN LUIS VALLEY/SANGRE DE CRISTO MOUNTAINS...

CITY           SKY/WX    TMP DP  RH WIND       PRES   REMARKS
ALAMOSA        MOSUNNY   41  30  65 N10       30.09R
LA VETA PASS   SNOW      27  25  93 MISG      30.12R VSB 1/2
SAGUACHE       MOSUNNY   41  30  65 W7        30.10S
$$

COZ035-036-038>040-271500-
...NORTHERN COLORADO FRONT RANGE...

CITY           SKY/WX    TMP DP  RH WIND       PRES   REMARKS
DENVER INTL AP LGT RAIN  38  38 100 N5        30.21R
DMNS CITY PARK   N/A     38  37  94 NE7       30.23R
AURORA         NOT AVBL
FRONT RANGE AP DRIZZLE   39  37  93 MISG      30.22R
ERIE MUNI ARPT DRIZZLE   40  39  99 NE3       30.23R
BOULDER MUN AP DRIZZLE   39  39 100 NE6       30.22R
CENTENNIAL     LGT RAIN  36  36 100 NE7       30.21R FOG
BROOMFIELD     NOT AVBL
FORT COLLINS   PTSUNNY   39  36  87 N6        30.24R
LONGMONT       CLOUDY    42  40  93 NE6       30.25R
$$

COZ041-046-047-076>085-087-088-271500-
...PIKES PEAK/PALMER DIVIDE AND SOUTHERN FOOTHILLS...

CITY           SKY/WX    TMP DP  RH WIND       PRES   REMARKS
COLO. SPRINGS  LGT RAIN  39  35  86 N13       30.19R
A. F. ACADEMY  NOT AVBL
ELLICOTT       LGT RAIN N/A N/A N/A NE12      30.17R
FALCON         CLOUDY    36  35  96 N10G17    30.19R
FORT CARSON    NOT AVBL
LIMON          MIX PCPN  37  36  93 N8        30.19R FOG
MONUMENT HILL  LGT SNOW  32  32 100 N8        30.19R WCI  25
TRINIDAD       LGT RAIN  37  35  92 N20       30.11R
$$

COZ042>045-048>051-090-091-271500-
...NORTHEAST COLORADO...

CITY           SKY/WX    TMP DP  RH WIND       PRES   REMARKS
GREELEY ARPT   CLOUDY    39  34  81 N7        30.24R
AKRON          CLOUDY    41  41 100 E9        30.20R FOG
BURLINGTON     CLOUDY    43  39  86 NE15      30.18R
WRAY           PTSUNNY   47  41  80 NE7       30.19R
STERLING       CLOUDY    43  43 100 N6        30.21R FOG
HOLYOKE        PTSUNNY   46  41  81 NE8       30.21R
FORT MORGAN    CLOUDY    41  40  96 E7        30.22R FOG
$$

COZ086-089-092>099-271500-
...SOUTHEAST COLORADO...

CITY           SKY/WX    TMP DP  RH WIND       PRES   REMARKS
PUEBLO         LGT RAIN  42  39  89 NE13      30.17R
LA JUNTA       LGT RAIN  43  41  93 NE17      30.14R FOG
LAMAR          CLOUDY    44  41  89 NE16      30.11R FOG
SPRINGFIELD      N/A     39  38  96 NE23G31   30.05R
$$



USA.gov is the U.S. government's official web portal to all federal, state and local government web resources and services.